This is the latest recevied weather packets stored in our database for station/object W1REE. If no packets are shown the sender has not sent any weather packets the latest 10 day(s).
| Time | Temp. | Humidity | Pressure | Rain* | Wind** | Luminosity | Snow |
|---|---|---|---|---|---|---|---|
| 1777474817 | 4.44° C | 82% | 1023 hPa | 0 mm | - | 106 W/m² | - |
| 1777474512 | 4.44° C | 83% | 1023.1 hPa | 0 mm | - | 58 W/m² | - |
| 1777474209 | 4.44° C | 84% | 1023 hPa | 0 mm | - | 99 W/m² | - |
| 1777473907 | 4.44° C | 84% | 1023 hPa | 0 mm | - | 92 W/m² | - |
| 1777473605 | 4.44° C | 83% | 1022.9 hPa | 0 mm | - | 91 W/m² | - |
| 1777473300 | 4.44° C | 84% | 1023.1 hPa | 0 mm | - | 75 W/m² | - |
| 1777472996 | 4.44° C | 83% | 1023.1 hPa | 0 mm | - | 41 W/m² | - |
| 1777472693 | 4.44° C | 83% | 1023 hPa | 0 mm | - | 79 W/m² | - |
| 1777472389 | 4.44° C | 84% | 1023 hPa | 0 mm | - | 50 W/m² | - |
| 1777472088 | 4.44° C | 83% | 1023 hPa | 0 mm | - | 53 W/m² | - |
| 1777471788 | 4.44° C | 83% | 1023.2 hPa | 0 mm | - | 65 W/m² | - |
| 1777471485 | 4.44° C | 84% | 1023.1 hPa | 0 mm | - | 51 W/m² | - |
| 1777471181 | 4.44° C | 83% | 1023.1 hPa | 0 mm | - | 61 W/m² | - |
| 1777470878 | 4.44° C | 84% | 1023.1 hPa | 0 mm | - | 60 W/m² | - |
| 1777470575 | 4.44° C | 84% | 1023.4 hPa | 0 mm | - | 45 W/m² | - |
| 1777470271 | 4.44° C | 85% | 1023.1 hPa | 0 mm | - | 47 W/m² | - |
| 1777469967 | 4.44° C | 84% | 1022.9 hPa | 0 mm | - | 36 W/m² | - |
| 1777469663 | 3.89° C | 84% | 1023 hPa | 0 mm | - | 33 W/m² | - |
| 1777469359 | 3.89° C | 85% | 1023 hPa | 0 mm | - | 46 W/m² | - |
| 1777469055 | 3.89° C | 85% | 1023.1 hPa | 0 mm | - | 38 W/m² | - |
| 1777468750 | 4.44° C | 84% | 1022.9 hPa | 0 mm | - | 41 W/m² | - |
| 1777468446 | 3.89° C | 85% | 1023 hPa | 0 mm | - | 67 W/m² | - |
| 1777468143 | 3.89° C | 85% | 1023.1 hPa | 0 mm | - | 37 W/m² | - |
| 1777467839 | 3.89° C | 85% | 1023 hPa | 0 mm | - | 31 W/m² | - |
| 1777467534 | 3.89° C | 85% | 1023.1 hPa | 0 mm | - | 19 W/m² | - |
* Rain latest hour (hover to see other rain measurements)
** Current wind speed in m/s (hover to see current wind gust speed)